CAPE
0 0 0 0 0 0 0 0 0 0 0 0 0 0 0 23 16 0 0 0 0 0
0 0 0 0 0 0 0 0 0 0 0 0 0 0 11 34 30 20 9 2 0 1
0 0 0 0 0 0 0 0 0 0 0 0 0 3 34 17 10 13 2 1 0 0
0 0 0 0 0 0 0 0 0 0 0 0 0 0 10 27 32 0 1 1 0 0
0 0 0 0 0 0 0 0 0 0 0 0 0 0 1 14 0 0 1 1 2 2
0 0 0 0 0 0 0 0 0 0 0 0 0 0 1 3 1 0 1 1 1 1
0 0 0 0 0 0 0 0 0 0 0 1 2 1 1 1 1 1 0 0 1 2
0 0 0 0 0 0 0 0 0 1 2 1 1 0 0 1 1 1 0 1 1 0
0 0 0 0 0 0 0 1 0 1 1 0 0 0 0 0 1 1 1 0 0 0
0 0 0 0 0 0 0 0 0 0 0 0 0 0 0 1 1 1 1 1 1 0
0 0 0 0 0 0 1 1 2 2 2 0 1 0 0 0 1 2 1 0 0 0
0 0 0 0 1 3 2 2 2 2 1 1 1 0 0 0 0 0 0 0 0 0
1 1 1 3 2 2 1 2 1 1 2 2 2 0 0 0 0 0 0 0 0 0
2 2 2 2 1 1 1 1 2 2 4 1 0 0 0 0 0 0 0 0 0 0
CIN
-0 -0 -0 -0 -0 -0 -0 -0 -0 -0 -0 -0 -0 -0 -0 -104 -98 -0 -0 -0 -0 -0
-0 -0 -0 -0 -0 -0 -0 -0 -0 -0 -0 -0 -0 -5 -88 -56 -57 -56 -63 -112 -0 -0
-0 -0 -0 -0 -0 -0 -0 -0 -0 -0 -0 -0 -0 -93 -59 -52 -74 -60 -16 -0 -0 -0
-0 -0 -0 -0 -0 -0 -0 -0 -0 -0 -0 -0 -0 -0 -63 -20 -29 -0 -0 -0 -0 -0
-0 -0 -0 -0 -0 -0 -0 -0 -0 -0 -0 -0 -0 -0 -50 -38 -0 -0 -0 -0 -0 -0
-0 -0 -0 -0 -0 -0 -0 -0 -0 -0 -0 -0 -0 -0 -0 -30 -0 -0 -0 -0 -0 -0
-0 -0 -0 -0 -0 -0 -0 -0 -0 -0 -0 -0 -0 -0 -0 -0 -0 -0 -0 -0 -0 -0
-0 -0 -0 -0 -0 -0 -0 -0 -0 -0 -0 -0 -0 -0 -0 -0 -0 -0 -0 -0 -0 -0
-0 -0 -0 -0 -0 -0 -0 -0 -0 -0 -0 -0 -0 -0 -0 -0 -0 -0 -0 -0 -0 -0
-0 -0 -0 -0 -0 -0 -0 -0 -0 -0 -0 -0 -0 -0 -0 -0 -0 -0 -0 -0 -0 -0
-0 -0 -0 -0 -0 -0 -0 -0 -0 -0 -0 -0 -0 -0 -0 -0 -0 -0 -0 -0 -0 -0
-0 -0 -0 -0 -0 -0 -0 -0 -0 -0 -0 -0 -0 -0 -0 -0 -0 -0 -0 -0 -0 -0
-0 -0 -0 -0 -0 -0 -0 -0 -0 -0 -0 -0 -0 -0 -0 -0 -0 -0 -0 -0 -0 -0
-0 -0 -0 -0 -0 -0 -0 -0 -0 -0 -0 -0 -0 -0 -0 -0 -0 -0 -0 -0 -0 -0
Wind_Speed
27 24 17 19 19 19 20 21 17 16 17 16 14 14 15 17 19 21 21 22 23 27
26 24 23 25 24 21 13 11 12 13 13 13 16 17 18 18 20 21 21 20 23 30
21 22 24 21 24 23 21 22 21 15 14 16 17 17 19 22 26 26 26 24 23 22
19 18 19 20 18 17 17 19 19 17 16 17 18 21 27 32 32 30 23 22 18 25
15 14 15 16 14 14 17 13 15 15 16 18 20 23 25 22 14 16 17 15 16 19
12 12 12 14 12 12 12 14 14 16 18 20 21 21 24 16 16 18 18 17 17 16
13 14 14 12 13 13 13 15 15 16 17 18 19 19 18 18 18 19 19 18 17 19
10 10 10 12 13 14 14 15 16 18 18 19 20 19 18 18 20 20 19 20 20 20
7 10 10 11 12 14 15 15 15 16 18 19 20 20 19 20 21 20 19 19 19 16
5 7 10 12 14 14 15 16 17 19 20 22 23 21 19 19 19 18 18 16 15 15
7 8 10 11 13 16 18 19 20 20 20 21 22 18 16 15 15 15 14 14 16 16
8 8 10 12 15 16 16 18 19 20 19 18 17 16 15 14 14 14 15 15 15 18
11 11 12 12 14 15 16 17 17 17 16 15 15 16 15 14 14 15 16 18 21 22
12 13 13 15 16 15 15 14 14 14 16 17 18 18 18 17 17 18 20 22 24 25
Wind_Direction
168 165 160 165 169 173 179 184 190 198 202 211 233 250 269 276 277 285 282 281 286 288
171 171 173 178 181 183 195 218 219 219 236 244 264 259 271 272 279 287 284 275 282 290
171 178 182 184 190 194 198 203 208 225 242 260 265 264 275 283 287 290 291 287 283 282
178 181 186 191 196 202 206 207 213 222 245 255 262 280 289 291 290 289 293 288 267 280
191 196 205 210 217 217 212 237 230 236 247 261 267 282 280 288 283 278 285 289 284 289
211 215 220 225 223 238 240 262 256 262 262 268 274 280 287 266 270 278 288 298 295 290
218 218 218 225 246 243 255 262 267 271 274 278 284 286 289 279 283 289 291 295 294 295
229 247 252 254 260 267 269 271 275 282 284 287 291 291 290 288 289 291 294 300 303 303
254 270 270 271 274 281 284 287 286 283 288 293 296 296 292 294 294 295 296 300 306 310
287 285 292 297 296 296 297 300 300 303 304 305 306 306 305 304 304 302 302 305 306 314
316 313 311 311 310 311 311 311 312 314 315 317 319 321 322 322 321 319 319 317 314 318
336 334 331 325 323 323 323 323 323 324 325 328 330 335 335 336 334 332 329 329 325 324
342 341 340 341 337 334 332 331 332 336 343 345 344 346 348 346 338 331 328 328 326 326
354 349 347 345 341 342 344 347 349 351 349 347 344 344 344 339 334 328 325 323 322 323